This demonstration page uses our WeatherBlox Daily Observations layout. Learn more.

Left ArrowRight Arrow

Hourly Observations for May 6, 2019

Temp ( °F °C ) Dew Point ( °F °C ) Humidity (%) Winds ( mph kmh ) Pressure ( in mb ) Visibility ( mi km ) Precip ( " mm )
12:15 am 00:15 Cloudy 56 13.3 53 11.5 89 89 ENE 9 15 29.86 1011 10 16 N/A
12:35 am 00:35 Cloudy 56 13.3 52 11.1 87 87 NNE 15 24 29.85 1011 10 16 N/A
12:55 am 00:55 Partly Cloudy 54 12.2 51 10.7 91 91 NE 9 15 29.88 1012 10 16 N/A
1:15 am 01:15 Clear 53 11.7 51 10.6 93 93 NE 13 20 29.89 1012 10 16 N/A
1:35 am 01:35 Mostly Cloudy 54 12 52 11 94 94 NE 9 15 29.90 1012 10 16 N/A
1:55 am 01:55 Mostly Cloudy 54 12 52 11 94 94 NNE 13 20 29.91 1013 10 16 N/A
2:15 am 02:15 Mostly Cloudy 54 12.2 52 11.1 93 93 NNE 14 22 29.90 1013 10 16 N/A
2:35 am 02:35 Cloudy 55 12.7 52 11.3 91 91 NNE 17 28 29.91 1013 10 16 N/A
2:55 am 02:55 Cloudy 54 12.3 51 10.8 91 91 N 20 31 29.92 1013 10 16 N/A
3:15 am 03:15 Mostly Cloudy 53 11.5 49 9.5 88 88 NNE 15 24 29.94 1014 10 16 N/A
3:35 am 03:35 Cloudy 53 11.5 48 8.9 84 84 NNE 14 22 29.95 1014 10 16 N/A
3:55 am 03:55 Cloudy 52 11.3 47 8.5 83 83 NE 13 20 29.95 1014 10 16 N/A
4:15 am 04:15 Cloudy 52 11.3 47 8.5 83 83 ENE 13 20 29.94 1014 10 16 N/A
4:35 am 04:35 Cloudy 52 11.1 46 8 81 81 ENE 14 22 29.94 1014 10 16 N/A
4:55 am 04:55 Cloudy 52 10.9 46 7.8 81 81 E 12 19 29.93 1014 10 16 N/A
5:15 am 05:15 Cloudy 51 10.8 46 7.8 82 82 E 15 24 29.94 1014 10 16 N/A
5:35 am 05:35 Cloudy 52 10.9 47 8.1 83 83 E 15 24 29.93 1014 10 16 N/A
5:55 am 05:55 Cloudy 52 11 47 8.6 85 85 NE 14 22 29.93 1014 10 16 N/A
6:15 am 06:15 Cloudy 50 10 44 6.8 81 81 NE 15 24 29.95 1014 10 16 N/A
6:35 am 06:35 Cloudy 49 9.6 44 6.4 81 81 NE 18 30 29.95 1014 10 16 N/A
6:55 am 06:55 Cloudy 49 9.3 43 6 80 80 ENE 18 30 29.96 1015 10 16 N/A
7:15 am 07:15 Cloudy 48 9.1 42 5.5 78 78 NE 22 35 29.97 1015 10 16 N/A
7:35 am 07:35 Cloudy 48 9 41 4.8 75 75 ENE 22 35 29.98 1015 10 16 N/A
7:55 am 07:55 Cloudy 48 8.9 40 4.5 74 74 ENE 20 31 29.99 1016 10 16 N/A
8:15 am 08:15 Cloudy 48 8.9 40 4.5 74 74 ENE 15 24 30.01 1016 10 16 N/A
8:35 am 08:35 Cloudy 48 8.8 40 4.5 75 75 ENE 16 26 30.03 1017 10 16 N/A
8:55 am 08:55 Cloudy 48 8.7 40 4.4 75 75 NE 20 31 30.03 1017 10 16 N/A
9:15 am 09:15 Cloudy 48 8.8 40 4.5 75 75 NE 16 26 30.04 1017 10 16 N/A
9:35 am 09:35 Cloudy 48 8.8 40 4.3 74 74 NE 18 30 30.03 1017 10 16 N/A
9:55 am 09:55 Cloudy 47 8.3 41 5.1 80 80 ENE 20 31 30.04 1017 7 11 N/A
10:15 am 10:15 Cloudy with Nearby Thunderstorms 48 8.9 41 5 77 77 E 17 28 30.03 1017 10 16 N/A
10:35 am 10:35 Cloudy with Nearby Thunderstorms 49 9.3 41 5.1 75 75 E 16 26 30.01 1016 10 16 N/A
10:55 am 10:55 Cloudy with Nearby Thunderstorms 48 9 41 5.2 77 77 E 16 26 29.99 1016 10 16 N/A
11:15 am 11:15 Cloudy 48 9.1 42 5.5 78 78 ENE 21 33 30.00 1016 10 16 N/A
11:35 am 11:35 Cloudy with Thunderstorms 47 8.1 44 6.4 89 89 NNE 10 17 30.04 1017 10 16 0.02 0.51
11:55 am 11:55 Cloudy 46 8 45 7 93 93 NE 13 20 30.04 1017 10 16 0.02 0.51
12:15 pm 12:15 Cloudy with Nearby Thunderstorms 46 8 45 7.2 95 95 ENE 13 20 30.04 1017 10 16 N/A
12:35 pm 12:35 Cloudy 46 7.9 45 7.3 96 96 NE 16 26 30.03 1017 10 16 N/A
12:55 pm 12:55 Cloudy 46 7.6 45 7.2 97 97 NNE 9 15 30.03 1017 10 16 N/A
1:15 pm 13:15 Cloudy 46 7.5 45 7.3 99 99 NE 10 17 30.05 1017 10 16 N/A
1:35 pm 13:35 Cloudy 46 7.6 46 7.5 99 99 N 8 13 30.05 1018 10 16 N/A
1:55 pm 13:55 Cloudy with Light Rain 45 7.2 45 7.1 99 99 N 10 17 30.07 1018 10 16 N/A
2:15 pm 14:15 Cloudy with Light Rain 45 7.4 45 7.3 99 99 ENE 10 17 30.05 1017 7 11 0.01 0.25
2:35 pm 14:35 Cloudy with Light Rain 46 7.7 46 7.6 99 99 E 12 19 30.04 1017 5 8 0.02 0.51
2:55 pm 14:55 Cloudy with Mist and Fog 47 8.1 46 8 99 99 E 13 20 30.04 1017 3 5 0.02 0.51
3:15 pm 15:15 Cloudy with Mist and Fog 48 8.7 48 8.7 100 100 E 16 26 30.03 1017 3 4 N/A
3:35 pm 15:35 Cloudy with Mist and Fog 49 9.2 49 9.2 100 100 E 13 20 30.03 1017 3 5 N/A
3:55 pm 15:55 Cloudy with Mist and Fog 49 9.5 49 9.5 100 100 E 9 15 30.02 1016 3 4 N/A
4:15 pm 16:15 Cloudy with Mist and Fog 50 10 50 10 100 100 ENE 10 17 30.01 1016 3 5 N/A
4:35 pm 16:35 Cloudy with Mist and Fog 51 10.5 51 10.5 100 100 ENE 13 20 30.01 1016 5 8 N/A
4:55 pm 16:55 Cloudy 51 10.7 51 10.5 99 99 ENE 14 22 30.00 1016 7 11 N/A
5:15 pm 17:15 Cloudy 51 10.7 51 10.5 99 99 ENE 14 22 30.00 1016 7 11 N/A
5:35 pm 17:35 Cloudy 51 10.8 51 10.6 99 99 ENE 14 22 30.00 1016 10 16 N/A
5:55 pm 17:55 Cloudy 52 11 51 10.7 98 98 ENE 13 20 30.00 1016 10 16 N/A
6:15 pm 18:15 Cloudy 51 10.8 51 10.6 99 99 ENE 13 20 30.01 1016 10 16 N/A
6:35 pm 18:35 Cloudy 51 10.6 51 10.5 99 99 NE 14 22 30.01 1016 7 11 N/A
6:55 pm 18:55 Cloudy 51 10.6 51 10.5 99 99 NE 14 22 30.02 1017 7 11 N/A
7:15 pm 19:15 Cloudy 51 10.6 51 10.5 99 99 NE 15 24 30.01 1016 7 11 N/A
7:35 pm 19:35 Cloudy 51 10.6 51 10.5 99 99 NE 16 26 30.01 1016 7 11 N/A
7:55 pm 19:55 Cloudy 51 10.7 51 10.4 98 98 NE 15 24 30.02 1016 7 11 N/A
8:15 pm 20:15 Cloudy 51 10.6 51 10.3 98 98 NNE 17 28 30.04 1017 10 16 N/A
8:35 pm 20:35 Cloudy 49 9.7 49 9.6 99 99 NNE 17 28 30.05 1017 7 11 N/A
8:55 pm 20:55 Cloudy with Mist and Fog 49 9.3 49 9.3 100 100 NNE 17 28 30.06 1018 5 8 N/A
9:15 pm 21:15 Cloudy with Mist and Fog 48 9.1 48 9.1 100 100 NNE 15 24 30.06 1018 5 8 N/A
9:35 pm 21:35 Cloudy with Mist and Fog 48 9 48 9 100 100 NNE 17 28 30.07 1018 5 8 N/A
10:15 pm 22:15 Cloudy with Mist and Fog 47 8.6 47 8.6 100 100 NE 17 28 30.08 1018 4 6 N/A
10:35 pm 22:35 Cloudy with Mist and Fog 47 8.5 47 8.5 100 100 NE 20 31 30.08 1018 4 6 N/A
10:55 pm 22:55 Cloudy with Mist and Fog 47 8.5 47 8.5 100 100 NE 21 33 30.07 1018 3 5 N/A
11:15 pm 23:15 Cloudy with Mist and Fog 47 8.5 47 8.5 100 100 NE 18 30 30.08 1018 4 6 N/A
11:35 pm 23:35 Cloudy with Mist and Fog 47 8.6 47 8.6 100 100 NE 22 35 30.08 1018 5 8 N/A
11:55 pm 23:55 Cloudy 47 8.6 47 8.6 100 100 NE 17 28 30.09 1019 7 11 N/A

Powered by AerisWeather